Regional Weather Roundup
Issued by NWS

Home | Current Version | Previous Version | Text Only | Print | Product List | Glossary Off
Versions: 1 2 3 4 5 6 7 8 9 10 11 12 13 14 15 16 17 18 19 20 21 22 23 24 25 26 27 28 29 30 31 32 33 34 35 36 37 38 39 40 41 42 43 44 45 46 47 48 49 50

000
ASUS43 KLOT 211303
RWRIL

ILLINOIS REGIONAL WEATHER ROUNDUP
NATIONAL WEATHER SERVICE CHICAGO/ROMEOVILLE IL
700 AM CST SUN JAN 21 2018

NOTE: "FAIR" INDICATES FEW OR NO CLOUDS BELOW 12,000 FEET WITH NO
SIGNIFICANT WEATHER AND/OR OBSTRUCTIONS TO VISIBILITY.

* THESE STATIONS ARE NOT UNDER NWS QUALITY CONTROL. THEY ALSO MAY NOT
  REPORT WEATHER SUCH AS PRECIPITATION OR FOG.

ILZ001-002-007-009-015-016-024-211400-
NORTHWEST ILLINOIS

CITY           SKY/WX    TMP DP  RH WIND       PRES   REMARKS
MOLINE         CLOUDY    40  37  89 E6        29.92R
STERLING*      CLOUDY    37  36  96 CALM      29.95S
SAVANNA*       CLOUDY    37  36  95 CALM      29.94S FOG
$$

ILZ003-004-008-010-011-017-018-211400-
NORTH CENTRAL ILLINOIS

CITY           SKY/WX    TMP DP  RH WIND       PRES   REMARKS
ROCKFORD       CLOUDY    37  35  92 CALM      29.97S FOG
FREEPORT*      CLOUDY    35  35  98 CALM      29.96S FOG
ROCHELLE*      CLOUDY    37  36  99 CALM      29.95S FOG
DE KALB*       CLOUDY    37  37  99 SE5       29.96S FOG     WCI  33
PERU*          CLOUDY    37  35  95 SE6       29.97S FOG     WCI  32
$$

ILZ005-006-012>014-019>023-211400-
NORTHEAST ILLINOIS

CITY           SKY/WX    TMP DP  RH WIND       PRES   REMARKS
CHICAGO-OHARE  CLOUDY    37  35  92 S5        29.96F FOG     WCI  33
CHICAGO-MIDWAY CLOUDY    40  38  93 S7        29.98S FOG
AURORA         CLOUDY    37  36  96 SE5       29.96F FOG     WCI  33
LANSING*       FOG       38  38 100 CALM      30.00S VSB 1
JOLIET*        FOG       38  38 100 E3        29.98F VSB 1/2
WAUKEGAN       CLOUDY    37  35  92 CALM      29.96S FOG
DUPAGE AIRPORT CLOUDY    37  37 100 S7        29.96S FOG     WCI  32
KANKAKEE*      FOG      N/A N/A N/A SE5       30.00S VSB 1/2
WHEELING       CLOUDY    39  38  96 S6        29.98S WCI  35
MORRIS*        FOG       37  37  97 SE6       29.96F VSB 1/4 WCI  33
NORTHERLY ISL    N/A     40  36  86 S7          N/A
$$

LMZ740>746-211400-
SOUTHERN LAKE MICHIGAN

STATION/POSITION SKY/WX   TEMP    WIND        PRES    VSBY  WAVE
                          AIR SEA DIR/SP/G                  HT/PER
                          (F)     (DEG/KT/KT) (MB)    (MI)  (FT/S)
HARRISON CRIB              40     180/ 12/ 13   N/A
BURNHAM HARBOR             40     180/  7/  7   N/A
CALUMET HARBOR             39     210/  3/  5 1014.9S
BURNS HARBOR               38     210/  7/  8 1016.3S
MICHIGAN CITY              38     180/  5/  7   N/A
$$

ILZ025>027-034>036-040-047-049-050-058-095>099-211400-
WEST-CENTRAL ILLINOIS

CITY           SKY/WX    TMP DP  RH WIND       PRES   REMARKS
QUINCY         CLOUDY    45  42  89 S6        29.90S
GALESBURG*     CLOUDY    39  38  95 SE5       29.93S
JACKSONVILLE*  CLOUDY    44  43  96 S5        29.93F FOG
PITTSFIELD*    CLOUDY    40  40  99 SE5       29.93F FOG
$$

ILZ028>032-037-038-041>044-048-051>054-059>061-211400-
CENTRAL ILLINOIS

CITY           SKY/WX    TMP DP  RH WIND       PRES   REMARKS
BLOOMINGTON    FOG       40  40 100 S9        29.96F VSB 1
DECATUR        FOG       43  43 100 S9        29.97F VSB 3/4
PEORIA         CLOUDY    41  40  96 S6        29.95S FOG
LACON*         CLOUDY    38  38  99 CALM      29.95S FOG
LINCOLN*       CLOUDY    41  41 100 SE3       29.96F FOG
SPRINGFIELD    CLOUDY    46  45  96 S9        29.95F FOG
TAYLORVILLE    CLOUDY    46  46  99 S12       29.97S FOG
$$

ILZ033-039-045-046-055>057-062-063-211400-
EAST-CENTRAL ILLINOIS

CITY           SKY/WX    TMP DP  RH WIND       PRES   REMARKS
CHAMPAIGN      FOG       41  41 100 SE6       29.99S VSB 1/4
DANVILLE*      FOG       40  40 100 S3        29.99R VSB 1/4
RANTOUL*       DRZL/FOG  39  39 100 SE6       29.99S VSB 1/4 WCI  35
MATTOON        FOG       43  43 100 S9        29.99S VSB 1/4
$$

ILZ079-100>102-211400-
SOUTHWEST ILLINOIS

CITY           SKY/WX    TMP DP  RH WIND       PRES   REMARKS
ALTON          CLOUDY   N/A N/A N/A SE8       29.98R FOG
BELLEVILLE     CLOUDY    51  50  98 S7        29.97S
CAHOKIA*       CLOUDY    47  46  97 SE7       29.96F FOG
SPARTA*        CLOUDY    50  50 100 S10       30.00S FOG
$$

ILZ064>066-069>071-074>076-080>082-084>086-088>090-092>094-211400-
SOUTH-CENTRAL ILLINOIS

CITY           SKY/WX    TMP DP  RH WIND       PRES   REMARKS
CARBONDALE     CLOUDY    51  51 100 S16G26    30.02F
CAIRO*         CLOUDY    46  45  95 S8        30.07S
EFFINGHAM*     FOG       45  45 100 SE5       30.03S VSB 1/4
MARION         CLOUDY    50  50 100 S17       30.04S
MT. VERNON     CLOUDY    49  48  97 S7        30.03R FOG
CENTRALIA*     CLOUDY    50  50 100 S8        30.00S FOG
SALEM*         FOG       50  49  95 S7        30.01S VSB 1/2
$$

ILZ067-068-072-073-078-083-087-091-211400-
SOUTHEAST ILLINOIS

CITY           SKY/WX    TMP DP  RH WIND       PRES   REMARKS
LAWRENCEVILLE  CLOUDY    41  39  93 S9        30.06S
FLORA*         CLOUDY    46  45  97 S7        30.03S FOG
FAIRFIELD*     CLOUDY    47  47 100 S3        30.04R
HARRISBURG*    CLOUDY    51  49  92 SW9       30.06S
ROBINSON*      CLOUDY    43  43  99 S10       30.05S FOG
CARMI*         CLOUDY    41  40  99 S7        30.05S
$$

ABBREVIATIONS USED IN REMARKS
   TC - TEMPERATURE IN CELSIUS
  WCI - WIND CHILL INDEX
   HX - HEAT INDEX
  VSB - VISIBILITY
$$





USA.gov is the U.S. government's official web portal to all federal, state and local government web resources and services.